Location: �perlecques
(50.8057°N, 2.1521°E)
Time: 19:14:05
(UTC+00:00)

DIWATA 2B (PO-101) - Visible Passes

Search period start: 28 March 2023 00:00
Search period end: 07 April 2023 00:00
Orbit: 581 x 596 km, 98.0° (Epoch: 28 March)

Date Brightness Start Highest point End Pass type
(mag) Time Alt. Az. Time Alt. Az. Time Alt. Az.
28 Mar ? 01:17:00 21° NNE 01:17:00 21° NNE 01:18:50 10° N visible
28 Mar ? 02:53:29 16° NW 02:53:29 16° NW 02:54:28 10° NNW visible
29 Mar ? 01:24:23 23° NNE 01:24:23 23° NNE 01:26:25 10° N visible
29 Mar ? 03:00:52 15° NW 03:00:52 15° NW 03:01:50 10° NNW visible
30 Mar ? 01:31:45 26° NNE 01:31:45 26° NNE 01:33:57 10° N visible
30 Mar ? 03:08:15 15° NW 03:08:15 15° NW 03:09:09 10° NW visible
31 Mar ? 01:39:08 29° NNE 01:39:08 29° NNE 01:41:29 10° N visible
31 Mar ? 03:15:37 14° NW 03:15:37 14° NW 03:16:26 10° NW visible
01 Apr ? 01:46:29 33° NNE 01:46:29 33° NNE 01:48:59 10° N visible
01 Apr ? 03:22:59 13° NW 03:22:59 13° NW 03:23:40 10° NW visible
02 Apr ? 01:53:51 36° N 01:53:51 36° N 01:56:28 10° N visible
02 Apr ? 03:30:20 12° WNW 03:30:20 12° WNW 03:30:49 10° NW visible
03 Apr ? 00:24:43 11° ENE 00:25:05 11° NE 00:26:09 10° NE visible
03 Apr ? 02:01:12 40° N 02:01:12 40° N 02:03:56 10° N visible
03 Apr ? 03:37:41 11° WNW 03:37:41 11° WNW 03:37:53 10° WNW visible
04 Apr ? 00:32:03 12° ENE 00:32:25 12° NE 00:34:10 10° NNE visible
04 Apr ? 02:08:32 43° N 02:08:32 43° N 02:11:23 10° NNW visible
05 Apr ? 00:39:23 14° ENE 00:39:45 14° ENE 00:41:59 10° NNE visible
05 Apr ? 02:15:53 44° NNW 02:15:53 44° NNW 02:18:48 10° NNW visible
06 Apr ? 00:46:43 16° ENE 00:47:05 16° ENE 00:49:40 10° NNE visible
06 Apr ? 02:23:13 45° NW 02:23:13 45° NW 02:26:12 10° NNW visible
